Time,TemperatureF,DewpointF,PressureIn,WindDirection,WindDirectionDegrees,WindSpeedMPH,WindSpeedGustMPH,Humidity,HourlyPrecipIn,Conditions,Clouds,dailyrainin,SoftwareType,DateUTC
2013-03-31 07:52:00,64.0,53.0,30.05,West,279,3.0,7.0,67,0.00,,,0.07,,2013-03-31 17:52:00,
2013-03-31 08:02:00,64.0,52.0,30.06,WNW,288,3.0,11.0,65,0.00,,,0.07,,2013-03-31 18:02:00,
2013-03-31 08:12:00,64.0,52.0,30.06,WNW,288,3.0,11.0,65,0.00,,,0.07,,2013-03-31 18:12:00,
2013-03-31 08:21:00,65.0,54.0,30.06,West,277,5.0,14.0,67,0.00,,,0.07,,2013-03-31 18:21:00,
2013-03-31 08:32:00,65.0,54.0,30.07,West,265,6.0,12.0,67,0.00,,,0.07,,2013-03-31 18:32:00,
2013-03-31 08:41:00,65.0,54.0,30.07,West,265,6.0,12.0,67,0.00,,,0.07,,2013-03-31 18:41:00,
2013-03-31 08:53:00,65.0,53.0,30.07,West,279,3.0,9.0,66,0.00,,,0.07,,2013-03-31 18:53:00,
2013-03-31 09:02:00,66.0,53.0,30.06,North,360,5.0,16.0,62,0.00,,,0.07,,2013-03-31 19:02:00,
2013-03-31 09:11:00,66.0,53.0,30.06,North,360,5.0,16.0,62,0.00,,,0.07,,2013-03-31 19:11:00,
2013-03-31 09:21:00,66.0,53.0,30.06,NNE,26,4.0,13.0,62,0.00,,,0.07,,2013-03-31 19:21:00,
2013-03-31 09:32:00,66.0,52.0,30.07,NNW,327,11.0,19.0,60,0.00,,,0.07,,2013-03-31 19:32:00,
2013-03-31 09:42:00,66.0,52.0,30.07,NNW,327,11.0,19.0,60,0.00,,,0.07,,2013-03-31 19:42:00,
2013-03-31 09:53:00,66.0,52.0,30.06,ENE,63,6.0,17.0,60,0.00,,,0.07,,2013-03-31 19:53:00,
2013-03-31 10:02:00,67.0,53.0,30.07,NNE,17,6.0,15.0,60,0.00,,,0.07,,2013-03-31 20:02:00,
2013-03-31 10:11:00,67.0,53.0,30.07,NNE,17,6.0,15.0,60,0.00,,,0.07,,2013-03-31 20:11:00,
2013-03-31 10:21:00,67.0,52.0,30.07,West,275,4.0,9.0,58,0.00,,,0.07,,2013-03-31 20:21:00,
2013-03-31 10:32:00,68.0,52.0,30.07,NNW,348,6.0,13.0,57,0.00,,,0.07,,2013-03-31 20:32:00,
2013-03-31 10:42:00,68.0,52.0,30.07,NNW,348,6.0,13.0,57,0.00,,,0.07,,2013-03-31 20:42:00,
2013-03-31 10:52:00,68.0,52.0,30.07,WNW,288,2.0,11.0,57,0.00,,,0.07,,2013-03-31 20:52:00,
2013-03-31 11:02:00,69.0,53.0,30.07,North,360,5.0,10.0,57,0.00,,,0.07,,2013-03-31 21:02:00,
2013-03-31 11:11:00,69.0,53.0,30.07,North,360,5.0,10.0,57,0.00,,,0.07,,2013-03-31 21:11:00,
2013-03-31 11:21:00,69.0,53.0,30.07,NE,55,5.0,11.0,56,0.00,,,0.07,,2013-03-31 21:21:00,
2013-03-31 11:33:00,70.0,53.0,30.07,ENE,60,6.0,9.0,54,0.00,,,0.07,,2013-03-31 21:33:00,
2013-03-31 11:42:00,70.0,53.0,30.07,ENE,60,6.0,9.0,54,0.00,,,0.07,,2013-03-31 21:42:00,
2013-03-31 11:53:00,70.0,53.0,30.06,ESE,105,4.0,11.0,54,0.00,,,0.07,,2013-03-31 21:53:00,
2013-03-31 12:02:00,71.0,53.0,30.05,NE,52,4.0,9.0,53,0.00,,,0.07,,2013-03-31 22:02:00,
2013-03-31 12:12:00,71.0,53.0,30.05,NE,52,4.0,9.0,53,0.00,,,0.07,,2013-03-31 22:12:00,
2013-03-31 12:23:00,70.0,54.0,30.05,NNW,329,8.0,11.0,57,0.00,,,0.07,,2013-03-31 22:23:00,
2013-03-31 12:32:00,70.0,54.0,30.05,NNE,15,6.0,13.0,56,0.00,,,0.07,,2013-03-31 22:32:00,
2013-03-31 12:42:00,70.0,54.0,30.05,NNE,15,6.0,13.0,56,0.00,,,0.07,,2013-03-31 22:42:00,
2013-03-31 12:53:00,71.0,54.0,30.04,NW,319,5.0,13.0,55,0.00,,,0.07,,2013-03-31 22:53:00,
2013-03-31 13:02:00,71.0,54.0,30.03,NNE,22,5.0,9.0,55,0.00,,,0.07,,2013-03-31 23:02:00,
2013-03-31 13:12:00,71.0,54.0,30.03,NNE,22,5.0,9.0,55,0.00,,,0.07,,2013-03-31 23:12:00,
2013-03-31 13:21:00,72.0,54.0,30.03,North,360,2.0,8.0,54,0.00,,,0.06,,2013-03-31 23:21:00,
2013-03-31 13:31:00,72.0,54.0,30.03,NNE,28,4.0,10.0,54,0.00,,,0.06,,2013-03-31 23:31:00,
2013-03-31 13:42:00,72.0,54.0,30.03,NNE,28,4.0,10.0,54,0.00,,,0.06,,2013-03-31 23:42:00,
2013-03-31 13:52:00,71.0,54.0,30.02,ESE,119,7.0,10.0,54,0.00,,,0.06,,2013-03-31 23:52:00,
2013-03-31 14:01:00,72.0,54.0,30.01,WSW,241,5.0,11.0,53,0.00,,,0.06,,2013-04-01 00:01:00,
2013-03-31 14:12:00,72.0,54.0,30.01,WSW,241,5.0,11.0,53,0.00,,,0.06,,2013-04-01 00:12:00,
2013-03-31 14:22:00,72.0,54.0,30.00,SW,235,2.0,9.0,53,0.00,,,0.03,,2013-04-01 00:22:00,
2013-03-31 14:31:00,73.0,55.0,29.99,SSE,167,3.0,12.0,53,0.00,,,0.03,,2013-04-01 00:31:00,
2013-03-31 14:42:00,73.0,55.0,29.99,SSE,167,3.0,12.0,53,0.00,,,0.03,,2013-04-01 00:42:00,
2013-03-31 14:51:00,72.0,54.0,29.99,SE,142,5.0,10.0,54,0.00,,,0.03,,2013-04-01 00:51:00,
2013-03-31 15:01:00,72.0,55.0,29.98,ESE,121,7.0,12.0,55,0.00,,,0.03,,2013-04-01 01:01:00,
2013-03-31 15:21:00,72.0,55.0,29.98,ESE,109,5.0,11.0,55,0.00,,,0.02,,2013-04-01 01:21:00,
2013-03-31 15:31:00,71.0,54.0,29.98,East,85,5.0,11.0,56,0.00,,,0.02,,2013-04-01 01:31:00,
2013-03-31 15:42:00,71.0,54.0,29.98,East,85,5.0,11.0,56,0.00,,,0.02,,2013-04-01 01:42:00,
2013-03-31 15:52:00,71.0,54.0,29.98,ENE,62,1.0,7.0,56,0.00,,,0.02,,2013-04-01 01:52:00,
2013-03-31 16:02:00,71.0,57.0,29.98,North,355,6.0,9.0,61,0.00,,,0.02,,2013-04-01 02:02:00,
2013-03-31 16:11:00,71.0,57.0,29.98,North,355,6.0,9.0,61,0.00,,,0.02,,2013-04-01 02:11:00,
2013-03-31 16:21:00,69.0,56.0,29.98,North,360,6.0,14.0,63,0.00,,,0.02,,2013-04-01 02:21:00,
2013-03-31 16:32:00,69.0,55.0,29.98,NW,319,7.0,13.0,62,0.00,,,0.02,,2013-04-01 02:32:00,
2013-03-31 16:42:00,69.0,55.0,29.98,NW,319,7.0,13.0,62,0.00,,,0.02,,2013-04-01 02:42:00,
2013-03-31 16:52:00,69.0,55.0,29.98,NNW,348,6.0,13.0,62,0.00,,,0.02,,2013-04-01 02:52:00,
2013-03-31 17:02:00,69.0,56.0,29.97,North,350,6.0,12.0,64,0.00,,,0.02,,2013-04-01 03:02:00,
2013-03-31 17:11:00,69.0,56.0,29.97,North,350,6.0,12.0,64,0.00,,,0.02,,2013-04-01 03:11:00,
2013-03-31 17:22:00,69.0,56.0,29.97,NNW,331,5.0,14.0,63,0.00,,,0.02,,2013-04-01 03:22:00,
2013-03-31 17:33:00,70.0,56.0,29.97,NNW,346,8.0,13.0,61,0.00,,,0.02,,2013-04-01 03:33:00,
2013-03-31 17:42:00,70.0,56.0,29.97,NNW,346,8.0,13.0,61,0.00,,,0.02,,2013-04-01 03:42:00,
2013-03-31 17:53:00,69.0,55.0,29.97,NNE,24,5.0,17.0,61,0.00,,,0.02,,2013-04-01 03:53:00,
2013-03-31 18:02:00,69.0,55.0,29.97,NNW,329,4.0,15.0,62,0.00,,,0.02,,2013-04-01 04:02:00,
2013-03-31 18:12:00,69.0,55.0,29.97,NNW,329,4.0,15.0,62,0.00,,,0.02,,2013-04-01 04:12:00,
2013-03-31 18:22:00,69.0,55.0,29.97,North,349,7.0,12.0,60,0.00,,,0.02,,2013-04-01 04:22:00,
2013-03-31 18:32:00,68.0,54.0,29.98,NNW,337,7.0,15.0,61,0.00,,,0.02,,2013-04-01 04:32:00,
2013-03-31 18:42:00,68.0,54.0,29.98,NNW,337,7.0,15.0,61,0.00,,,0.02,,2013-04-01 04:42:00,
2013-03-31 18:52:00,67.0,53.0,29.98,North,349,5.0,13.0,60,0.00,,,0.02,,2013-04-01 04:52:00,
2013-03-31 19:02:00,66.0,52.0,29.99,West,269,6.0,11.0,61,0.00,,,0.02,,2013-04-01 05:02:00,
2013-03-31 19:12:00,66.0,52.0,29.99,West,269,6.0,11.0,61,0.00,,,0.02,,2013-04-01 05:12:00,
2013-03-31 19:21:00,66.0,52.0,29.99,West,266,12.0,22.0,60,0.00,,,0.02,,2013-04-01 05:21:00,
2013-03-31 19:32:00,66.0,52.0,30.00,WNW,286,4.0,18.0,61,0.00,,,0.02,,2013-04-01 05:32:00,
2013-03-31 19:42:00,66.0,52.0,30.00,WNW,286,4.0,18.0,61,0.00,,,0.02,,2013-04-01 05:42:00,
2013-03-31 19:52:00,65.0,52.0,30.01,WNW,302,3.0,7.0,62,0.00,,,0.02,,2013-04-01 05:52:00,
2013-03-31 20:01:00,65.0,52.0,30.01,WNW,300,4.0,12.0,62,0.00,,,0.02,,2013-04-01 06:01:00,
2013-03-31 20:12:00,65.0,52.0,30.01,WNW,300,4.0,12.0,62,0.00,,,0.02,,2013-04-01 06:12:00,
2013-03-31 20:22:00,65.0,52.0,30.01,NE,47,9.0,17.0,62,0.00,,,0.02,,2013-04-01 06:22:00,
2013-03-31 20:32:00,65.0,52.0,30.01,NNW,342,5.0,17.0,62,0.00,,,0.02,,2013-04-01 06:32:00,
2013-03-31 20:42:00,65.0,52.0,30.01,NNW,342,5.0,17.0,62,0.00,,,0.02,,2013-04-01 06:42:00,
2013-03-31 20:52:00,65.0,52.0,30.03,NE,46,3.0,11.0,63,0.00,,,0.02,,2013-04-01 06:52:00,
2013-03-31 21:02:00,65.0,52.0,30.02,WNW,282,0.0,5.0,63,0.00,,,0.02,,2013-04-01 07:02:00,
2013-03-31 21:12:00,65.0,52.0,30.02,WNW,282,0.0,5.0,63,0.00,,,0.02,,2013-04-01 07:12:00,
2013-03-31 21:21:00,65.0,52.0,30.03,NE,42,2.0,8.0,63,0.00,,,0.01,,2013-04-01 07:21:00,
2013-03-31 21:31:00,64.0,52.0,30.03,WNW,295,0.0,8.0,64,0.00,,,0.01,,2013-04-01 07:31:00,
2013-03-31 21:42:00,64.0,52.0,30.03,WNW,295,0.0,8.0,64,0.00,,,0.01,,2013-04-01 07:42:00,
2013-03-31 21:52:00,64.0,52.0,30.03,NNW,336,2.0,8.0,64,0.00,,,0.01,,2013-04-01 07:52:00,
2013-03-31 22:02:00,65.0,52.0,30.02,North,5,2.0,9.0,63,0.00,,,0.01,,2013-04-01 08:02:00,
2013-03-31 22:11:00,65.0,52.0,30.02,North,5,2.0,9.0,63,0.00,,,0.01,,2013-04-01 08:11:00,
2013-03-31 22:21:00,65.0,52.0,30.02,NW,319,3.0,9.0,62,0.00,,,0.01,,2013-04-01 08:21:00,
2013-03-31 22:31:00,65.0,51.0,30.02,NNW,337,4.0,10.0,60,0.00,,,0.01,,2013-04-01 08:31:00,
2013-03-31 22:42:00,65.0,51.0,30.02,NNW,337,4.0,10.0,60,0.00,,,0.01,,2013-04-01 08:42:00,
2013-03-31 22:52:00,65.0,51.0,30.02,NNW,337,4.0,10.0,60,0.00,,,0.01,,2013-04-01 08:52:00,
2013-03-31 23:01:00,65.0,51.0,30.02,NNW,337,4.0,10.0,60,0.00,,,0.01,,2013-04-01 09:01:00,
2013-03-31 23:11:00,65.0,51.0,30.02,NNW,337,4.0,10.0,60,0.00,,,0.01,,2013-04-01 09:11:00,